N5SRF Weather Reports


Display with metric or nautical units.
time (UTC)temp
F
wind
direction
speed
MPH
gust
MPH
rain 1hr
in
rain 24hr
in
rain mn
in
humidity
%
barometer
mb
20260905224323 77 162 1.0 1.0 0.07 0.07 0.07 99 1016.8
20260905223818 77 161 1.0 1.0 0.05 0.06 0.06 99 1016.9
20260905223316 77 164 0.0 1.0 0.12 0.06 0.06 99 1016.9
20260905222811 77 166 0.0 1.0 0.12 0.05 0.05 98 1017.1
20260905222309 77 176 1.0 1.0 0.12 0.04 0.04 98 1017.0
20260905221806 77 117 0.0 1.0 0.12 0.03 0.03 97 1017.0
20260905221302 78 157 0.0 0.0 0.12 0.02 0.02 95 1016.7
20260905220757 78 149 1.0 1.0 0.07 0.01 0.01 94 1016.7
20260905220254 78 168 0.0 0.0 0.00 0.00 0.00 94 1016.8
20260905215753 78 114 3.0 5.0 0.00 0.00 0.00 93 1017.0
20260905215249 78 129 1.0 2.0 0.00 0.00 0.00 92 1016.9
20260905214744 78 142 1.0 2.0 0.00 0.00 0.00 92 1016.7
20260905214240 78 93 3.0 5.0 0.00 0.00 0.00 91 1016.7
20260905213735 78 78 2.0 3.0 0.00 0.00 0.00 91 1016.6
20260905213231 79 83 4.0 5.0 0.00 0.00 0.00 90 1016.5
20260905212726 79 83 5.0 11.0 0.00 0.00 0.00 90 1016.7
20260905212225 80 50 3.0 5.0 0.00 0.00 0.00 89 1017.0
20260905211725 80 88 7.0 10.0 0.00 0.00 0.00 85 1016.9
20260905211221 81 89 5.0 7.0 0.00 0.00 0.00 85 1016.7
20260905210718 82 130 4.0 8.0 0.00 0.00 0.00 85 1016.8
20260905210217 83 71 7.0 9.0 0.00 0.00 0.00 85 1016.8
20260905205711 85 99 2.0 2.0 0.00 0.00 0.00 83 1016.9
20260905205210 86 27 1.0 2.0 0.00 0.00 0.00 77 1016.7
20260905204705 87 159 0.0 0.0 0.00 0.00 0.00 77 1016.4
20260905204200 87 115 0.0 1.0 0.00 0.00 0.00 76 1016.6
20260905203700 88 123 1.0 1.0 0.00 0.00 0.00 73 1016.5
20260905203155 88 155 0.0 0.0 0.00 0.00 0.00 71 1016.8
20260905202651 89 154 1.0 1.0 0.00 0.00 0.00 69 1016.3
20260905202146 89 89 1.0 1.0 0.00 0.00 0.00 69 1016.6
20260905201642 90 82 4.0 6.0 0.00 0.00 0.00 66 1016.6
20260905201136 90 107 2.0 2.0 0.00 0.00 0.00 68 1016.4
20260905200632 90 100 3.0 3.0 0.00 0.00 0.00 68 1016.3
20260905200126 91 84 2.0 3.0 0.00 0.00 0.00 66 1016.3
20260905195620 91 117 2.0 2.0 0.00 0.00 0.00 66 1016.3
20260905195115 91 122 3.0 3.0 0.00 0.00 0.00 66 1016.3
20260905194614 92 79 4.0 5.0 0.00 0.00 0.00 64 1016.3
20260905194114 92 159 1.0 1.0 0.00 0.00 0.00 64 1016.4
20260905193609 92 114 1.0 1.0 0.00 0.00 0.00 66 1016.4
20260905193104 92 85 1.0 2.0 0.00 0.00 0.00 65 1016.4
20260905192559 92 88 2.0 2.0 0.00 0.00 0.00 69 1016.4
20260905192056 91 141 1.0 1.0 0.00 0.00 0.00 67 1016.4
20260905191554 92 82 3.0 3.0 0.00 0.00 0.00 67 1016.6
20260905191054 92 131 1.0 1.0 0.00 0.00 0.00 67 1016.7
20260905190551 92 115 3.0 5.0 0.00 0.00 0.00 69 1016.4
20260905190046 91 53 1.0 2.0 0.00 0.00 0.00 68 1016.7
20260905185544 91 100 2.0 2.0 0.00 0.00 0.00 67 1017.0
20260905185039 92 67 1.0 1.0 0.00 0.00 0.00 66 1017.1
20260905184539 93 53 1.0 2.0 0.00 0.00 0.00 65 1017.2
20260905184037 91 131 1.0 1.0 0.00 0.00 0.00 67 1017.4
20260905183532 92 95 3.0 3.0 0.00 0.00 0.00 65 1017.5
20260905183027 93 227 1.0 1.0 0.00 0.00 0.00 65 1017.1
20260905182526 93 163 1.0 1.0 0.00 0.00 0.00 67 1017.5
20260905182021 92 350 3.0 3.0 0.00 0.00 0.00 66 1017.3
20260905181516 92 93 5.0 6.0 0.00 0.00 0.00 66 1017.3
20260905181015 91 218 1.0 2.0 0.00 0.00 0.00 69 1017.3
20260905180510 91 125 1.0 2.0 0.00 0.00 0.00 72 1017.3
20260905180006 91 160 1.0 1.0 0.00 0.00 0.00 69 1017.6
20260905175505 92 91 1.0 2.0 0.00 0.00 0.00 68 1017.8
20260905175001 92 309 3.0 5.0 0.00 0.00 0.00 68 1017.7
20260905174455 91 347 3.0 3.0 0.00 0.00 0.00 70 1017.8
20260905173951 91 130 0.0 1.0 0.00 0.00 0.00 71 1017.7
20260905173447 90 118 1.0 1.0 0.00 0.00 0.00 73 1018.1
20260905172943 92 95 4.0 5.0 0.00 0.00 0.00 74 1018.1
20260905172441 92 110 2.0 2.0 0.00 0.00 0.00 71 1018.2
20260905171936 91 55 3.0 3.0 0.00 0.00 0.00 74 1018.5
20260905171433 90 240 0.0 1.0 0.00 0.00 0.00 74 1018.2
20260905170929 90 268 3.0 3.0 0.00 0.00 0.00 76 1018.4
20260905170425 91 225 1.0 2.0 0.00 0.00 0.00 74 1018.4
20260905165924 92 332 2.0 2.0 0.00 0.00 0.00 73 1018.6
20260905165419 92 323 3.0 3.0 0.00 0.00 0.00 73 1018.5
20260905164915 92 184 0.0 1.0 0.00 0.00 0.00 71 1018.6
20260905164414 92 111 1.0 1.0 0.00 0.00 0.00 70 1018.7
20260905163909 91 219 1.0 1.0 0.00 0.00 0.00 70 1018.8
20260905163406 91 233 1.0 2.0 0.00 0.00 0.00 71 1018.7
20260905162902 90 203 2.0 2.0 0.00 0.00 0.00 74 1018.8
20260905162402 90 148 1.0 1.0 0.00 0.00 0.00 72 1018.7
20260905161857 90 273 2.0 2.0 0.00 0.00 0.00 75 1018.6
20260905161356 90 10 2.0 3.0 0.00 0.00 0.00 76 1018.7
20260905160854 89 156 1.0 1.0 0.00 0.00 0.00 77 1018.9
20260905160349 89 264 3.0 3.0 0.00 0.00 0.00 77 1018.8
20260905155843 88 193 0.0 0.0 0.00 0.00 0.00 76 1018.7
20260905155342 88 176 0.0 1.0 0.00 0.00 0.00 80 1018.8
20260905154837 89 262 2.0 2.0 0.00 0.00 0.00 79 1019.0
20260905154332 89 210 1.0 1.0 0.00 0.00 0.00 79 1019.2
20260905153828 89 187 0.0 0.0 0.00 0.00 0.00 81 1019.0
20260905153324 89 250 3.0 3.0 0.00 0.00 0.00 81 1018.9
20260905152823 88 45 3.0 3.0 0.00 0.00 0.00 82 1018.7
20260905152322 87 182 2.0 2.0 0.00 0.00 0.00 86 1019.0
20260905151817 86 175 0.0 0.0 0.00 0.00 0.00 89 1018.9
20260905151313 85 184 0.0 0.0 0.00 0.00 0.00 89 1018.6
20260905150808 84 191 0.0 0.0 0.00 0.00 0.00 90 1018.8
20260905150307 84 155 0.0 0.0 0.00 0.00 0.00 90 1018.8
20260905145805 84 191 0.0 0.0 0.00 0.00 0.00 92 1018.9
20260905145259 83 178 0.0 0.0 0.00 0.00 0.00 93 1019.0
20260905144757 82 136 0.0 0.0 0.00 0.00 0.00 93 1018.8
20260905144254 82 163 0.0 0.0 0.00 0.00 0.00 94 1018.9
20260905143753 82 161 0.0 0.0 0.00 0.00 0.00 95 1018.8
20260905143253 82 153 0.0 0.0 0.00 0.00 0.00 96 1018.8
20260905142751 81 167 0.0 0.0 0.00 0.00 0.00 97 1018.9
20260905142245 82 215 0.0 0.0 0.00 0.00 0.00 99 1018.7
20260905141742 81 227 0.0 0.0 0.00 0.00 0.00 99 1018.6
20260905141237 80 227 0.0 0.0 0.00 0.00 0.00 99 1018.8
20260905140727 80 227 0.0 0.0 0.00 0.00 0.00 99 1018.6
20260905140227 80 227 0.0 0.0 0.00 0.00 0.00 99 1018.6
20260905135720 79 227 0.0 0.0 0.00 0.00 0.00 99 1018.9
20260905135217 79 229 0.0 0.0 0.00 0.00 0.00 99 1018.7
20260905134715 79 226 0.0 0.0 0.00 0.00 0.00 99 1018.6
20260905134210 79 226 0.0 0.0 0.00 0.00 0.00 99 1018.8
20260905133705 79 225 0.0 0.0 0.00 0.00 0.00 99 1018.7
20260905133200 78 225 0.0 0.0 0.00 0.00 0.00 99 1018.8
20260905132658 78 226 0.0 0.0 0.00 0.00 0.00 99 1018.7
20260905132154 77 226 0.0 0.0 0.00 0.00 0.00 99 1018.5
20260905131643 77 226 0.0 0.0 0.00 0.00 0.00 99 1018.5
20260905131138 77 226 0.0 0.0 0.00 0.00 0.00 99 1018.7
20260905130633 76 226 0.0 0.0 0.00 0.00 0.00 99 1018.7
20260905130133 76 227 0.0 0.0 0.00 0.00 0.00 99 1018.6
20260905125627 76 227 0.0 0.0 0.00 0.00 0.00 99 1018.5
20260905125122 76 228 0.0 0.0 0.00 0.00 0.00 99 1018.4
20260905124613 75 227 0.0 0.0 0.00 0.00 0.00 99 1018.2
20260905124109 75 227 0.0 0.0 0.00 0.00 0.00 99 1018.3
20260905123603 75 227 0.0 0.0 0.00 0.00 0.00 99 1018.2
20260905123101 75 228 0.0 0.0 0.00 0.00 0.00 99 1018.2
20260905122554 75 228 0.0 0.0 0.00 0.00 0.00 99 1018.0
20260905122049 75 228 0.0 0.0 0.00 0.00 0.00 99 1017.8
20260905121544 75 228 0.0 0.0 0.00 0.00 0.00 99 1017.9
20260905121039 74 227 0.0 0.0 0.00 0.00 0.00 99 1017.8
20260905120538 74 227 0.0 0.0 0.00 0.00 0.00 99 1017.7
20260905120033 74 227 0.0 0.0 0.00 0.00 0.00 99 1017.5
20260905115532 74 227 0.0 0.0 0.00 0.00 0.00 99 1017.5
20260905115027 74 228 0.0 0.0 0.00 0.00 0.00 99 1017.7
20260905114526 74 228 0.0 0.0 0.00 0.00 0.00 99 1017.6
20260905114026 74 228 0.0 0.0 0.00 0.00 0.00 99 1017.4
20260905113521 74 228 0.0 0.0 0.00 0.00 0.00 99 1017.5
20260905113016 74 228 0.0 0.0 0.00 0.00 0.00 99 1017.2
20260905112511 75 228 0.0 0.0 0.00 0.00 0.00 99 1017.3
20260905112007 75 228 0.0 0.0 0.00 0.00 0.00 99 1017.0
20260905111502 75 228 0.0 0.0 0.00 0.00 0.00 99 1017.1
20260905111001 75 228 0.0 0.0 0.00 0.00 0.00 99 1017.0
20260905110455 75 228 0.0 0.0 0.00 0.00 0.00 99 1017.2
20260905105954 75 228 1.0 1.0 0.00 0.00 0.00 99 1017.0
20260905105449 75 228 0.0 0.0 0.00 0.00 0.00 99 1017.1
20260905104948 75 228 0.0 0.0 0.00 0.00 0.00 99 1017.0
20260905104445 75 228 0.0 0.0 0.00 0.00 0.00 99 1017.1
20260905103939 75 228 0.0 0.0 0.00 0.00 0.00 99 1017.0
20260905103435 75 228 0.0 0.0 0.00 0.00 0.00 99 1017.0
20260905102931 75 228 0.0 0.0 0.00 0.00 0.00 99 1017.0
20260905102427 75 228 0.0 0.0 0.00 0.00 0.00 99 1016.8
20260905101922 75 228 0.0 0.0 0.00 0.00 0.00 99 1017.0
20260905101420 75 228 0.0 0.0 0.00 0.00 0.00 99 1017.3
20260905100914 75 228 0.0 0.0 0.00 0.00 0.00 99 1017.0
20260905100405 75 228 0.0 0.0 0.00 0.00 0.00 99 1017.1
20260905095904 75 228 0.0 0.0 0.00 0.00 0.00 99 1017.0
20260905095358 75 228 0.0 1.0 0.00 0.00 0.00 99 1017.0
20260905094853 75 228 0.0 1.0 0.00 0.00 0.00 99 1016.9
20260905094349 75 228 0.0 0.0 0.00 0.00 0.00 99 1017.3
20260905093847 75 228 0.0 0.0 0.00 0.00 0.00 99 1017.0
20260905093343 75 228 0.0 1.0 0.00 0.00 0.00 99 1017.1
20260905092839 75 228 0.0 1.0 0.00 0.00 0.00 99 1016.9
20260905092339 75 228 1.0 1.0 0.00 0.00 0.00 99 1017.0
20260905091834 75 228 1.0 1.0 0.00 0.00 0.00 99 1016.9
20260905091334 75 228 0.0 0.0 0.00 0.00 0.00 99 1017.1
20260905090832 75 228 0.0 1.0 0.00 0.00 0.00 99 1017.0
20260905090329 75 229 1.0 1.0 0.00 0.00 0.00 99 1016.8
20260905085828 75 228 0.0 1.0 0.00 0.00 0.00 99 1016.8
20260905085322 76 229 0.0 0.0 0.00 0.00 0.00 99 1016.7
20260905084818 76 228 0.0 0.0 0.00 0.00 0.00 99 1016.7
20260905084317 76 229 0.0 1.0 0.00 0.00 0.00 99 1016.9
20260905083812 76 229 0.0 0.0 0.00 0.00 0.00 99 1016.7
20260905083308 76 229 0.0 0.0 0.00 0.00 0.00 99 1016.7
20260905082803 76 229 0.0 1.0 0.00 0.00 0.00 99 1016.8
20260905082259 76 229 0.0 0.0 0.00 0.00 0.00 99 1017.0
20260905081754 77 229 0.0 1.0 0.00 0.00 0.00 99 1016.8
20260905081249 77 229 1.0 1.0 0.00 0.00 0.00 99 1016.8
20260905080748 77 224 1.0 1.0 0.00 0.00 0.00 99 1017.0
20260905080243 77 184 0.0 0.0 0.00 0.00 0.00 98 1016.9
20260905075742 77 199 0.0 0.0 0.00 0.00 0.00 98 1017.0
20260905075241 77 199 0.0 0.0 0.00 0.00 0.00 98 1017.0
20260905074740 78 206 1.0 1.0 0.00 0.00 0.00 98 1016.8
20260905074236 78 307 1.0 2.0 0.00 0.00 0.00 98 1016.8
20260905073732 78 186 0.0 0.0 0.00 0.00 0.00 98 1017.0
20260905073227 78 157 0.0 1.0 0.00 0.00 0.00 98 1017.2
20260905072726 78 186 0.0 1.0 0.00 0.00 0.00 98 1017.1
20260905072222 78 181 0.0 0.0 0.00 0.00 0.00 98 1017.3
20260905071718 78 164 0.0 0.0 0.00 0.00 0.00 98 1017.0
20260905071214 78 161 1.0 2.0 0.00 0.00 0.00 98 1017.0
20260905070709 78 166 0.0 1.0 0.00 0.00 0.00 98 1017.1
20260905070205 78 177 0.0 0.0 0.00 0.00 0.00 98 1017.5
20260905065703 78 170 2.0 2.0 0.00 0.00 0.00 98 1017.4
20260905065158 78 178 0.0 0.0 0.00 0.00 0.00 98 1017.6
20260905064653 78 177 0.0 1.0 0.00 0.00 0.00 98 1017.4
20260905064149 78 190 1.0 1.0 0.00 0.00 0.00 98 1017.4
20260905063647 78 171 0.0 0.0 0.00 0.00 0.00 98 1017.4
20260905063144 78 198 0.0 1.0 0.00 0.00 0.00 98 1017.2
20260905062639 78 177 0.0 0.0 0.00 0.00 0.00 98 1017.5
20260905062138 78 186 0.0 0.0 0.00 0.00 0.00 98 1017.4
20260905061632 78 168 0.0 1.0 0.00 0.00 0.00 98 1017.4
20260905061127 78 174 0.0 0.0 0.00 0.00 0.00 98 1017.2
20260905060622 78 168 1.0 1.0 0.00 0.00 0.00 98 1017.2
20260905060119 78 172 0.0 1.0 0.00 0.00 0.00 98 1017.2
20260905055616 78 186 1.0 2.0 0.00 0.00 0.00 98 1017.3
20260905055106 78 150 0.0 0.0 0.00 0.00 0.00 98 1017.4
20260905054602 78 163 0.0 0.0 0.00 0.00 0.00 97 1017.4
20260905054057 78 178 0.0 1.0 0.00 0.00 0.00 97 1017.3
20260905053556 78 161 0.0 0.0 0.00 0.00 0.00 97 1017.5
20260905053052 78 161 0.0 0.0 0.00 0.00 0.00 97 1017.3
20260905052551 78 164 1.0 1.0 0.00 0.00 0.00 97 1017.3
20260905052046 78 165 0.0 0.0 0.00 0.00 0.00 96 1017.5
20260905051542 78 165 0.0 1.0 0.00 0.00 0.00 96 1017.6
20260905051038 78 166 0.0 0.0 0.00 0.00 0.00 96 1017.4
20260905050533 78 194 2.0 2.0 0.00 0.00 0.00 96 1017.5
20260905050025 78 194 1.0 1.0 0.00 0.00 0.00 97 1017.3
20260905045520 78 206 0.0 1.0 0.00 0.00 0.00 97 1017.3
20260905045015 78 221 0.0 0.0 0.00 0.00 0.00 97 1017.5
20260905044514 78 221 1.0 1.0 0.00 0.00 0.00 97 1017.4
20260905044009 78 222 0.0 0.0 0.00 0.00 0.00 97 1017.4
20260905043508 78 221 0.0 0.0 0.00 0.00 0.00 97 1017.6
20260905043003 78 221 0.0 0.0 0.00 0.00 0.00 97 1017.6
20260905042503 78 221 0.0 0.0 0.00 0.00 0.00 97 1017.5
20260905041957 78 221 0.0 0.0 0.00 0.00 0.00 97 1017.5
20260905041453 78 221 0.0 0.0 0.00 0.00 0.00 97 1017.6
20260905040948 78 221 0.0 1.0 0.00 0.00 0.00 97 1017.6
20260905040447 78 221 0.0 1.0 0.00 0.00 0.00 97 1017.8
20260905035942 78 221 0.0 0.0 0.00 0.00 0.00 97 1017.6
20260905035436 78 221 0.0 0.0 0.00 0.00 0.00 97 1017.7
20260905034934 78 221 0.0 1.0 0.00 0.00 0.00 97 1017.6
20260905034429 78 221 0.0 0.0 0.00 0.00 0.00 97 1017.6
20260905033928 78 221 0.0 0.0 0.00 0.00 0.00 98 1017.4
20260905033422 78 221 0.0 0.0 0.00 0.00 0.00 98 1017.7
20260905032922 78 221 0.0 0.0 0.00 0.00 0.00 98 1017.7
20260905032418 78 221 0.0 0.0 0.00 0.00 0.00 97 1017.6
20260905031913 78 221 0.0 0.0 0.00 0.00 0.00 97 1017.6
20260905031409 78 221 0.0 0.0 0.00 0.00 0.00 97 1017.9
20260905030904 78 221 0.0 0.0 0.00 0.00 0.00 97 1017.9
20260905030354 78 221 0.0 0.0 0.00 0.00 0.00 97 1018.0
20260905025852 78 221 0.0 0.0 0.00 0.00 0.00 97 1017.7
20260905025348 78 221 0.0 0.0 0.00 0.00 0.00 97 1017.9
20260905024844 78 221 0.0 0.0 0.00 0.00 0.00 97 1017.6
20260905024339 78 221 0.0 0.0 0.00 0.00 0.00 97 1017.6
20260905023834 78 221 0.0 1.0 0.00 0.00 0.00 97 1017.7
20260905023324 78 221 0.0 0.0 0.00 0.00 0.00 97 1017.6
20260905022822 78 221 0.0 0.0 0.00 0.00 0.00 97 1017.6
20260905022318 78 221 0.0 0.0 0.00 0.00 0.00 98 1017.5
20260905021818 78 221 0.0 0.0 0.00 0.00 0.00 98 1017.7
20260905021313 78 221 0.0 1.0 0.00 0.00 0.00 98 1017.4
20260905020808 78 221 0.0 0.0 0.00 0.00 0.00 97 1017.7
20260905020304 78 221 0.0 0.0 0.00 0.00 0.00 97 1017.4
20260905015802 78 221 0.0 0.0 0.00 0.00 0.00 97 1017.0
20260905015257 78 221 0.0 0.0 0.00 0.00 0.00 97 1017.0
20260905014755 78 221 0.0 0.0 0.00 0.00 0.00 97 1017.2
20260905014252 78 221 0.0 0.0 0.00 0.00 0.00 97 1017.2
20260905013747 78 221 0.0 0.0 0.00 0.00 0.00 97 1017.0
20260905013243 78 221 0.0 0.0 0.00 0.00 0.00 97 1016.7
20260905012737 78 221 0.0 0.0 0.00 0.00 0.00 96 1017.0
20260905012233 79 221 0.0 0.0 0.00 0.00 0.00 96 1016.7
20260905011725 79 221 0.0 0.0 0.00 0.00 0.00 96 1016.7
20260905011219 79 222 0.0 0.0 0.00 0.00 0.00 96 1016.7
20260905010713 79 222 0.0 0.0 0.00 0.00 0.00 96 1016.6
20260905010203 79 222 0.0 0.0 0.00 0.00 0.00 96 1016.7
20260905005659 79 222 0.0 0.0 0.00 0.00 0.00 95 1016.3
20260905005155 79 222 0.0 0.0 0.00 0.00 0.00 95 1016.5
20260905004650 80 222 0.0 0.0 0.00 0.00 0.00 95 1016.4
20260905004145 80 222 0.0 0.0 0.00 0.00 0.00 94 1016.7
20260905003640 80 222 0.0 0.0 0.00 0.00 0.00 94 1016.6
20260905003136 80 222 0.0 0.0 0.00 0.00 0.00 94 1016.6
20260905002631 80 222 0.0 0.0 0.00 0.00 0.00 93 1016.5
20260905002125 80 222 0.0 0.0 0.00 0.00 0.00 93 1016.5
20260905001621 80 222 0.0 0.0 0.00 0.00 0.00 93 1016.7
20260905001115 80 222 0.0 0.0 0.00 0.00 0.00 92 1016.7
20260905000609 81 222 0.0 0.0 0.00 0.00 0.00 92 1016.7
20260905000106 81 222 1.0 1.0 0.00 0.00 0.00 91 1016.5
20260904235600 81 222 0.0 0.0 0.00 0.00 0.00 90 1016.5
20260904235100 81 222 0.0 0.0 0.00 0.00 0.00 90 1016.7
20260904234600 81 222 0.0 0.0 0.00 0.00 0.00 89 1016.5
20260904234056 82 222 0.0 0.0 0.00 0.00 0.00 88 1016.5
20260904233555 82 222 0.0 0.0 0.00 0.00 0.00 87 1016.4
20260904233052 82 222 0.0 0.0 0.00 0.00 0.00 86 1016.5
20260904232548 82 222 0.0 0.0 0.00 0.00 0.00 86 1016.7
20260904232045 83 222 0.0 1.0 0.00 0.00 0.00 85 1016.6
20260904231540 83 215 1.0 1.0 0.00 0.00 0.00 83 1016.8
20260904231035 83 218 0.0 0.0 0.00 0.00 0.00 83 1016.8
20260904230534 84 211 0.0 1.0 0.00 0.00 0.00 83 1016.6
20260904230030 84 204 1.0 1.0 0.00 0.00 0.00 82 1016.6
20260904225527 85 245 3.0 5.0 0.00 0.00 0.00 81 1016.6
20260904225027 86 150 1.0 1.0 0.00 0.00 0.00 84 1016.7